Location: Fontenoy
(49.4072°N, 3.2008°E)
Time: 11:39:24
(UTC+00:00)

Cosmos 1726 Rocket - Pass Details

Date: 15 May 2026
Orbit: 555 x 660 km, 82.5° (Epoch: 9 June)

Event Time Altitude Azimuth Distance (km) Brightness Sun altitude
Exits shadow 21:25:51 28° 151° (SSE) 1,069 4.2 -15.1°
Maximum altitude 21:27:37 47° 94° (E) 745 3.7 -15.2°
Drops below altitude 10° 21:31:31 10° 21° (NNE) 1,852 6.5 -15.6°
Sets 21:33:45 0° 15° (NNE) 2,759 7.6 -15.7°
